Retour au catalogue

STARLINK-35523

ActifCommunicationsVLEO
NORAD 65910·PAYLOAD·🇺🇸 United States

Lancé Oct 8, 2025 depuis Vandenberg Space Force Base

Loading…

Prochains Passages (prochaines 24 heures)

TLE

FraisSource: CelesTrak SupGP

Époque: Sep 14, 2026, 14:25 UTC

1 65910C 25225A   26257.60118056 -.00043082  00000+0 -12732-2 0  2578
2 65910  53.1596   5.2287 0001243  74.6684 273.8593 15.34403249    14

Suivez STARLINK-35523 en temps réel avec AllMySat

Download on the App Store